EW3808 Weather Reports


Display with metric or nautical units.
time (UTC)temp
F
wind
direction
speed
MPH
gust
MPH
rain 1hr
in
rain 24hr
in
rain mn
in
humidity
%
barometer
mb
20240615124636 52 157 3.0 11.0 0.00 0.00 0.00 59 1011.3
20240615123616 52 159 2.0 8.0 0.00 0.00 0.00 58 1011.4
20240615122635 53 155 3.0 8.0 0.00 0.00 0.00 57 1011.4
20240615121643 54 155 2.0 8.0 0.00 0.00 0.00 56 1011.4
20240615120641 54 123 3.0 8.0 0.00 0.00 0.00 55 1011.4
20240615115634 55 167 4.0 8.0 0.00 0.00 0.00 54 1011.5
20240615114612 55 155 3.0 7.0 0.00 0.00 0.00 53 1011.3
20240615112457 55 136 4.0 9.0 0.00 0.00 0.00 52 1011.1
20240615102944 56 212 5.0 15.0 0.00 0.00 0.00 52 1011.0
20240615101957 57 129 6.0 15.0 0.00 0.00 0.00 51 1011.1
20240615101011 57 167 4.0 13.0 0.00 0.00 0.00 51 1011.1
20240615094826 57 169 5.0 13.0 0.00 0.00 0.00 51 1011.0
20240615092636 58 175 6.0 13.0 0.00 0.00 0.00 50 1011.1
20240615091647 58 163 4.0 12.0 0.00 0.00 0.00 49 1011.2
20240615090706 59 178 4.0 13.0 0.00 0.00 0.00 48 1011.1
20240615085715 59 167 6.0 15.0 0.00 0.00 0.00 48 1010.9
20240615084732 59 178 6.0 15.0 0.00 0.00 0.00 48 1010.9
20240615082626 58 159 7.0 16.0 0.00 0.00 0.00 48 1011.0
20240615080516 59 143 8.0 16.0 0.00 0.00 0.00 47 1011.1
20240615074330 58 167 7.0 16.0 0.00 0.00 0.00 47 1011.4
20240615073311 58 186 7.0 15.0 0.00 0.00 0.00 48 1011.5
20240615072307 58 175 6.0 15.0 0.00 0.00 0.00 48 1011.4
20240615071322 58 182 4.0 13.0 0.00 0.00 0.00 48 1011.4
20240615065156 58 140 5.0 13.0 0.00 0.00 0.00 47 1011.3
20240615064129 59 150 5.0 12.0 0.00 0.00 0.00 47 1011.5
20240615062045 59 189 3.0 12.0 0.00 0.00 0.00 45 1011.7
20240615061033 60 168 2.0 11.0 0.00 0.00 0.00 45 1012.0
20240615060017 61 159 3.0 12.0 0.00 0.00 0.00 43 1012.0
20240615055022 61 138 3.0 13.0 0.00 0.00 0.00 44 1012.1
20240615052902 61 159 5.0 18.0 0.00 0.00 0.00 43 1012.3
20240615051912 60 167 5.0 18.0 0.00 0.00 0.00 45 1012.3
20240615050916 60 190 5.0 14.0 0.00 0.00 0.00 47 1012.4
20240615045842 60 180 5.0 14.0 0.00 0.00 0.00 47 1012.5
20240615044859 60 184 5.0 15.0 0.00 0.00 0.00 47 1012.6
20240615043916 60 161 6.0 15.0 0.00 0.00 0.00 47 1012.5
20240615042912 60 139 6.0 15.0 0.00 0.00 0.00 48 1012.4
20240615041908 60 135 7.0 15.0 0.00 0.00 0.00 47 1012.3
20240615040859 60 155 6.0 14.0 0.00 0.00 0.00 48 1012.4
20240615035916 60 191 6.0 17.0 0.00 0.00 0.00 47 1012.4
20240615034859 60 166 6.0 17.0 0.00 0.00 0.00 48 1012.5
20240615033904 60 192 6.0 16.0 0.00 0.00 0.00 47 1012.5
20240615032835 61 166 6.0 15.0 0.00 0.00 0.00 46 1012.3
20240615031816 62 160 6.0 17.0 0.00 0.00 0.00 45 1012.4
20240615030827 63 158 6.0 17.0 0.00 0.00 0.00 44 1012.5
20240615025849 64 164 5.0 13.0 0.00 0.00 0.00 42 1012.4
20240615024834 65 169 2.0 7.0 0.00 0.00 0.00 39 1012.3
20240615022640 67 143 1.0 5.0 0.00 0.00 0.00 36 1012.4
20240615020455 68 181 1.0 4.0 0.00 0.00 0.00 32 1012.5
20240615015515 69 157 0.0 1.0 0.00 0.00 0.00 29 1012.4
20240615014457 69 209 1.0 7.0 0.00 0.00 0.00 30 1012.5
20240615012259 70 255 1.0 7.0 0.00 0.00 0.00 27 1012.6
20240615011239 71 267 0.0 7.0 0.00 0.00 0.00 26 1012.5
20240615010245 71 213 2.0 6.0 0.00 0.00 0.00 27 1012.5
20240615005222 71 217 0.0 0.0 0.00 0.00 0.00 28 1012.5
20240615004241 71 234 1.0 5.0 0.00 0.00 0.00 26 1012.3
20240615003225 72 212 2.0 13.0 0.00 0.00 0.00 26 1012.4
20240615001124 72 317 1.0 7.0 0.00 0.00 0.00 28 1012.3
20240615000149 72 313 1.0 7.0 0.00 0.00 0.00 27 1012.3
20240614234035 74 265 1.0 8.0 0.00 0.00 0.00 28 1012.5
20240614233057 74 214 2.0 8.0 0.00 0.00 0.00 26 1012.7
20240614232033 75 281 0.0 8.0 0.00 0.00 0.00 25 1012.6
20240614225947 75 153 2.0 10.0 0.00 0.00 0.00 23 1012.9
20240614224946 75 328 1.0 13.0 0.00 0.00 0.00 26 1013.1
20240614223920 75 236 2.0 13.0 0.00 0.00 0.00 26 1013.1
20240614221828 74 351 3.0 10.0 0.00 0.00 0.00 26 1013.4
20240614220805 75 282 2.0 16.0 0.00 0.00 0.00 28 1013.3
20240614215800 75 181 3.0 16.0 0.00 0.00 0.00 29 1013.4
20240614214733 74 246 1.0 8.0 0.00 0.00 0.00 32 1013.2
20240614212530 72 252 2.0 8.0 0.00 0.00 0.00 34 1013.5
20240614210348 74 306 3.0 9.0 0.00 0.00 0.00 29 1013.8
20240614205358 74 339 3.0 13.0 0.00 0.00 0.00 29 1013.7
20240614204411 73 300 2.0 13.0 0.00 0.00 0.00 33 1013.6
20240614203425 74 260 4.0 12.0 0.00 0.00 0.00 30 1013.6
20240614202402 73 257 1.0 8.0 0.00 0.00 0.00 30 1013.6
20240614201351 73 288 2.0 11.0 0.00 0.00 0.00 33 1013.5
20240614200340 72 196 2.0 11.0 0.00 0.00 0.00 30 1013.6
20240614195312 72 177 1.0 9.0 0.00 0.00 0.00 34 1013.5
20240614194325 71 205 1.0 17.0 0.00 0.00 0.00 33 1013.5
20240614193325 70 127 5.0 17.0 0.00 0.00 0.00 39 1013.6
20240614191210 70 90 3.0 13.0 0.00 0.00 0.00 35 1013.8
20240614190211 70 190 5.0 15.0 0.00 0.00 0.00 36 1013.9
20240614185214 70 184 4.0 15.0 0.00 0.00 0.00 35 1013.9
20240614184148 69 187 4.0 15.0 0.00 0.00 0.00 37 1013.8
20240614183138 69 90 6.0 15.0 0.00 0.00 0.00 37 1013.8
20240614182157 69 211 5.0 17.0 0.00 0.00 0.00 38 1013.8
20240614181135 69 196 6.0 17.0 0.00 0.00 0.00 40 1013.8
20240614180126 68 188 3.0 15.0 0.00 0.00 0.00 39 1013.9
20240614175142 66 169 2.0 9.0 0.00 0.00 0.00 42 1014.0
20240614174145 66 110 3.0 9.0 0.00 0.00 0.00 42 1014.4
20240614173155 66 157 2.0 10.0 0.00 0.00 0.00 38 1014.5
20240614172139 67 182 2.0 10.0 0.00 0.00 0.00 38 1014.5
20240614171147 66 228 1.0 8.0 0.00 0.00 0.00 42 1014.2
20240614164927 65 178 5.0 19.0 0.00 0.00 0.00 39 1013.7
20240614163919 66 142 5.0 19.0 0.00 0.00 0.00 43 1013.7
20240614162905 67 81 4.0 14.0 0.00 0.00 0.00 39 1013.9
20240614160738 65 172 2.0 12.0 0.00 0.00 0.00 44 1014.1
20240614155746 65 191 3.0 12.0 0.00 0.00 0.00 42 1014.2
20240614153612 67 148 0.0 8.0 0.00 0.00 0.00 42 1014.3
20240614152538 66 128 2.0 11.0 0.00 0.00 0.00 42 1014.3
20240614151518 66 252 2.0 11.0 0.00 0.00 0.00 43 1014.1
20240614145407 63 144 2.0 9.0 0.00 0.00 0.00 47 1014.1
20240614144350 63 136 3.0 11.0 0.00 0.00 0.00 45 1014.3
20240614143322 62 142 3.0 9.0 0.00 0.00 0.00 46 1014.4
20240614142257 62 113 2.0 8.0 0.00 0.00 0.00 49 1014.4
20240614141257 60 190 3.0 8.0 0.00 0.00 0.00 48 1014.4
20240614135036 59 167 3.0 12.0 0.00 0.00 0.00 48 1014.4
20240614132901 58 155 2.0 8.0 0.00 0.00 0.00 47 1014.1
20240614131902 57 169 2.0 7.0 0.00 0.00 0.00 48 1014.1
20240614130913 57 176 2.0 7.0 0.00 0.00 0.00 48 1014.2